www.pogodaiklimat.ru

Погода и климат >> Архив погоды >> Турция >> Денизли


ПОГОДА в Денизли

  • Прогноз погоды в Денизли
  • Монитор погоды в Денизли

АРХИВ ПОГОДЫ в Денизли

Время (UTC), дата Ветер
(напр.,м/с)
 
Видим.   Явления Облачность Т
(С)
Тd
(С)
f
(%)
Тe
(С)
Тes
(С)
Комфортность P
(гПа)
Po
(гПа)
Тmin
(С)
Tmax
(С)
R
(мм)
R24
(мм)
S
(см)
16 10.09 С 2 20 км 3/3 1000 м
[Cu hum]
+30.0 +10.9 31 +30 +30 жарко 1006.8 959.3
17 10.09 З 1 20 км 1/1 1000 м
[Cu hum]
+28.1 +11.1 35 +29 +29 жарко 1007.5 959.9
18 10.09 З 1
{4}
20 км ясно +27.0 +11.8 39 +28 +28 жарко 1008.4 960.9 +33.9
21 10.09 Ю 1
{3}
20 км ясно +24.5 +12.1 46 +26 +26 жарко 1009.4 962.1
00 11.09 З 1
{3}
20 км ясно +22.3 +12.6 54 +25 +25 комфорт 1009.9 962.7
03 11.09 Ю 1
{2}
20 км ясно +20.4 +12.7 61 +24 +24 комфорт 1010.4 963.1
06 11.09 СВ 1
{2}
20 км 4/0
[Ci fib]
+23.9 +13.2 51 +26 +30 жарко 1011.7 964.2 +19.8
07 11.09 С 1 20 км 4/0
[Ci fib]
+25.8 +12.9 45 +28 +36 жарко 1012.0 964.5
08 11.09 С 1 20 км 4/0
[Ci fib]
+27.1 +13.4 43 +29 +41 жарко 1012.1 964.7
09 11.09 СВ 2
{3}
20 км 4/0
[Ci fib]
+28.7 +12.5 37 +30 +44 жарко 1011.8 964.5
10 11.09 С 2 20 км 3/3 1000 м
[Cu hum]
+30.3 +13.0 35 +32 +43 жарко 1011.4 964.1
11 11.09 С 2 20 км 3/3 1000 м
[Cu hum]
+31.6 +13.3 33 +33 +43 жарко 1010.9 963.7
12 11.09 С 2
{5}
20 км 3/3 1200 м
[Cu med, cong]
+33.2 +12.1 28 +33 +42 жарко 1010.3 963.2
13 11.09 С 2 20 км 4/4 1000 м
[Cu med, cong]
+34.2 +11.3 25 +34 +39 очень
жарко
1009.9 962.9
14 11.09 СЗ 2 20 км 4/4 1000 м
[Cu med, cong]
+32.6 +11.6 28 +33 +35 жарко 1010.1 962.9
15 11.09 С 2
{5}
20 км 4/4 1200 м
[Cu med, cong]
+31.9 +11.5 29 +32 +33 жарко 1010.4 963.1
16 11.09 С 1 20 км 5/5 1000 м
[Cu med, cong]
+30.3 +12.6 34 +31 +31 жарко 1010.9 963.4
17 11.09 В 1 20 км 1/1 1000 м
[Cu hum]
+28.2 +12.8 39 +30 +30 жарко 1011.6 964.0
18 11.09 В 1
{6}
20 км ясно +26.9 +13.9 45 +29 +29 жарко 1012.6 965.0 +34.4
21 11.09 В 1
{2}
20 км ясно +24.7 +14.2 52 +27 +27 жарко 1013.5 966.1
00 12.09 З 1
{2}
20 км ясно +22.6 +14.2 59 +26 +26 жарко 1013.0 965.8
03 12.09 ЮЗ 1
{2}
20 км ясно +21.4 +14.4 64 +24 +24 комфорт 1013.3 965.9
06 12.09 В 1
{2}
20 км ясно +24.0 +15.3 58 +27 +31 жарко 1014.2 966.6 +20.6
07 12.09 ЮВ 2 20 км ясно +25.1 +16.0 57 +28 +36 жарко 1014.4 966.7
08 12.09 СВ 1 20 км ясно +26.2 +15.3 51 +29 +42 жарко 1014.1 966.5
09 12.09 С 1
{5}
20 км ясно +28.8 +14.9 43 +31 +47 жарко 1013.2 965.8
10 12.09 С 2 20 км ясно +30.0 +14.0 38 +32 +48 жарко 1012.9 965.5
11 12.09 СЗ 2 20 км 3/3 1000 м
[Cu med, cong]
+31.2 +14.7 37 +33 +44 жарко 1012.4 965.1
12 12.09 З 2
{5}
20 км 5/4 1200 м
[Cu med, cong Ac und]
+31.1 +14.2 36 +33 +39 душно 1012.0 964.7
13 12.09 З 2 20 км гроза без осадков 8/3 1000 м
[Cb cap Ac As]
+30.5 +15.7 41 +33 +36 душно 1011.4 964.0
14 12.09 ЮЗ 1 20 км в посл. час гроза 6/4 1000 м
[Cu med, cong Ac und]
+32.2 +14.2 34 +34 +36 душно 1010.8 963.6
15 12.09 СЗ 2
{4}
20 км {гроза} 6/4 1200 м
[Cu med, cong Ac und]
+31.1 +13.3 34 +32 +33 жарко 1011.0 963.6
16 12.09 СЗ 2 20 км 8/4 1000 м
[Cu med, cong Ac As]
+28.9 +13.5 39 +31 +31 жарко 1011.6 964.0
17 12.09 СЗ 1 20 км 6/4 1000 м
[Cu med, cong Ac und]
+27.6 +13.1 41 +29 +29 жарко 1011.9 964.2
18 12.09 СЗ 1
{4}
20 км {гроза} 6/4 1200 м
[Cu med, cong Ac und]
+27.0 +12.5 41 +29 +29 жарко 1012.6 965.0 +32.3
21 12.09 С 1
{4}
20 км 4/4 1200 м
[Cu med, cong]
+24.4 +13.0 49 +26 +26 жарко 1012.8 965.4
00 13.09 СЗ 2
{5}
20 км 4/0
[Ac trans]
+22.5 +13.0 55 +25 +25 комфорт 1011.7 964.4
03 13.09 СЗ 2
{4}
20 км 4/0
[Ac trans]
+20.9 +13.4 62 +24 +24 комфорт 1011.5 964.1
06 13.09 З 1
{4}
20 км в посл. час гроза 9/4 1080 м
[Cb cap Ac As]
+20.6 +14.1 66 +24 +25 комфорт 1012.4 964.6 +20.2 0.4
07 13.09 СВ 2 10 км гроза, ливневой дождь 9/5 1000 м
[Cb cap Ac As]
+20.2 +15.6 75 +24 +25 комфорт 1013.3 965.3
08 13.09 СВ 1 10 км гроза, ливневой дождь 9/6 1000 м
[Cb cap Ac As]
+19.4 +16.0 81 +22 +25 комфорт 1014.2 966.1
09 13.09 С 2
{3}
10 км гроза, ливневой дождь 9/6 1050 м
[Cb cap Ac As]
+18.6 +16.0 85 +20 +23 1014.6 966.3
10 13.09 СЗ 2 10 км гроза без осадков 9/5 1000 м
[Cb cap Ac As]
+19.5 +15.8 79 +22 +26 комфорт 1014.6 966.3
11 13.09 СЗ 2 10 км гроза, ливневой дождь 9/5 1000 м
[Cb cap Ac As]
+19.4 +15.7 79 +22 +25 комфорт 1014.3 965.9
12 13.09 СЗ 1
{4}
10 км гроза, ливневой дождь 9/6 1050 м
[Cb cap Ac As]
+20.1 +15.1 73 +24 +27 комфорт 1013.8 965.5 2
13 13.09 В 1 10 км гроза, ливневой дождь 10/6 1000 м
[Cb cap As op]
+19.1 +16.1 83 +22 +23 комфорт 1013.6 965.2
14 13.09 В 1 10 км гроза, ливневой дождь 10/6 1000 м
[Cb cap As op]
+18.4 +16.7 90 +21 +21 комфорт 1013.8 965.3
15 13.09 В 1
{3}
10 км слаб. ливневой дождь, в посл. час гроза 10/6 1050 м
[Cb cap As op]
+18.0 +16.9 93 +20 +20 1014.2 965.5
16 13.09 В 1 10 км дождь 10/6 1000 м
[Sc As op]
+17.8 +17.3 97 +19 +19 1014.8 966.1
17 13.09 СВ 1 10 км дождь 10/6 1000 м
[Sc As op]
+17.6 +17.4 99 +19 +19 1014.0 965.3
18 13.09 С 1
{3}
20 км в посл. час дождь {гроза} 9/5 1110 м
[Sc Ac As]
+17.4 +17.3 99 +19 +19 1014.9 966.2 +21.0 14
21 13.09 СВ 1
{2}
15 км {дождь} 9/5 1110 м
[Sc Ac As]
+17.5 +17.5 100 +19 +19 1014.8 965.9
00 14.09 З 1
{2}
20 км {дождь} 9/5 1110 м
[Sc Ac As]
+16.9 +16.4 97 +18 +18 1014.2 965.4 0.1
03 14.09 З 1
{3}
20 км 4/0
[Ac trans]
+16.0 +13.6 86 +17 +17 1014.3 965.3
06 14.09 З 2
{3}
20 км 6/4 1200 м
[Cu med, cong Ac trans]
+17.9 +11.3 65 +19 +21 1015.1 966.1 +15.8 0.1
07 14.09 С 1 20 км 3/0
[Ac trans]
+20.0 +12.8 63 +23 +30 комфорт 1015.3 966.5
08 14.09 С 1 20 км ясно +21.8 +12.9 57 +24 +37 комфорт 1014.6 966.0
09 14.09 С 2
{4}
20 км ясно +22.9 +12.8 53 +26 +40 жарко 1014.1 965.6
10 14.09 В 1 20 км ясно +24.1 +11.0 44 +25 +42 комфорт 1013.6 965.2
11 14.09 З 1 20 км ясно +25.6 +10.9 40 +27 +43 жарко 1012.8 964.5
12 14.09 З 1
{4}
20 км ясно +27.2 +9.8 34 +28 +41 жарко 1011.8 963.7
13 14.09 С 2 20 км ясно +28.5 +9.6 31 +29 +37 жарко 1010.9 962.9
14 14.09 С 2 20 км ясно +28.6 +10.6 33 +29 +33 жарко 1010.6 962.6
15 14.09 С 2
{5}
20 км 3/3 1200 м
[Cu hum]
+27.6 +10.6 35 +28 +29 жарко 1010.6 962.5
16 14.09 С 1 20 км 3/3 1000 м
[Cu hum]
+25.8 +12.2 43 +27 +27 жарко 1010.5 962.3
17 14.09 З 1 20 км ясно +24.4 +11.6 45 +26 +26 жарко 1010.6 962.3
18 14.09 СЗ 1
{5}
20 км ясно +23.4 +10.7 45 +26 +26 жарко 1011.9 963.6 +29.0
21 14.09 СЗ 2
{5}
20 км ясно +22.6 +8.2 40 +24 +24 комфорт 1013.7 965.6
00 15.09 З 2
{6}
20 км ясно +20.2 +8.8 48 +22 +22 комфорт 1013.1 965.2
03 15.09 СЗ 3
{5}
20 км ясно +18.4 +8.6 53 +19 +19 1013.9 965.9
06 15.09 СЗ 1
{5}
20 км ясно +21.0 +9.2 47 +24 +28 комфорт 1015.7 967.5 +17.1
07 15.09 СЗ 1 20 км ясно +22.0 +9.5 45 +24 +32 комфорт 1016.3 968.1
08 15.09 С 1 20 км ясно +23.6 +8.7 39 +24 +37 комфорт 1015.8 967.7
09 15.09 СЗ 2
{4}
20 км ясно +25.3 +9.0 36 +26 +39 жарко 1015.4 967.5
10 15.09 СЗ 2 20 км ясно +25.8 +8.2 33 +26 +42 жарко 1015.0 967.0
11 15.09 С 2 20 км ясно +27.5 +8.2 30 +27 +41 жарко 1014.0 966.2
12 15.09 С 2
{5}
20 км ясно +28.7 +4.8 22 +27 +39 жарко 1013.3 965.5
13 15.09 СЗ 3 20 км ясно +30.0 +1.4 16 +27 +34 жарко 1012.8 965.1
14 15.09 С 3 20 км ясно +30.1 -1.4 13 +27 +31 жарко 1012.4 964.7
15 15.09 СВ 2
{5}
20 км ясно +29.3 0.0 15 +27 +28 жарко 1012.5 964.7
16 15.09 СВ 3 20 км ясно +27.2 -1.7 15 +25 +25 комфорт 1012.9 964.8
17 15.09 СВ 1 20 км ясно +24.9 +1.6 22 +24 +24 комфорт 1013.0 964.8
18 15.09 ЮЗ 2
{5}
20 км ясно +22.7 +2.1 26 +22 +22 комфорт 1013.7 965.5 +30.3
21 15.09 З 1
{3}
20 км ясно +20.6 +6.8 41 +23 +23 комфорт 1014.5 966.4
00 16.09 З 1
{3}
20 км ясно +19.3 +9.2 52 +22 +22 комфорт 1014.0 966.1
03 16.09 ЮЗ 1
{3}
20 км ясно +16.9 +9.1 60 +18 +18 1014.3 966.3
06 16.09 СВ 1
{3}
20 км ясно +20.4 +10.5 53 +24 +28 комфорт 1014.9 966.6 +16.3
07 16.09 Ю 1 20 км ясно +22.0 +9.1 44 +23 +32 комфорт 1014.7 966.4
08 16.09 С 1 20 км ясно +23.3 +7.7 37 +24 +36 комфорт 1014.3 966.1
09 16.09 З 2
{3}
20 км ясно +24.3 +6.9 33 +24 +39 комфорт 1014.0 965.9
10 16.09 ЮЗ 1 20 км ясно +26.2 +6.6 29 +26 +42 жарко 1013.3 965.3
11 16.09 З 1 20 км ясно +27.8 +6.4 26 +27 +43 жарко 1012.4 964.5
12 16.09 С 2
{4}
20 км ясно +28.7 +5.4 23 +27 +39 жарко 1011.8 964.0
13 16.09 З 1 20 км ясно +29.5 +4.1 20 +28 +36 жарко 1011.1 963.4
14 16.09 СЗ 2 20 км ясно +29.4 +4.7 21 +28 +32 жарко 1010.9 963.1
15 16.09 СЗ 1
{3}
20 км ясно +28.3 +5.7 24 +27 +28 жарко 1010.8 962.9
16 16.09 З 2 20 км ясно +25.9 +5.9 28 +25 +25 комфорт 1011.1 962.9
17 16.09 С 1 20 км ясно +23.7 +5.4 31 +24 +24 комфорт 1011.4 963.1
18 16.09 ЮЗ 2
{3}
20 км ясно +22.9 +6.1 34 +23 +23 комфорт 1012.1 963.9 +29.9
21 16.09 ЮЗ 2
{3}
20 км ясно +20.7 +9.6 49 +23 +23 комфорт 1013.0 964.9
00 17.09 З 2
{3}
20 км ясно +20.0 +9.8 52 +22 +22 комфорт 1012.9 965.1
03 17.09 ЮЗ 1
{3}
20 км ясно +17.1 +10.3 64 +18 +18 1013.3 965.3
06 17.09 СВ 1
{3}
20 км ясно +20.8 +10.9 53 +24 +28 комфорт 1014.6 966.4 +16.7
07 17.09 В 1 20 км ясно +23.3 +10.6 45 +25 +33 комфорт 1014.6 966.5
08 17.09 В 1 20 км ясно +25.4 +9.9 38 +26 +38 жарко 1014.4 966.5
09 17.09 В 1
{2}
20 км ясно +26.6 +9.8 35 +27 +42 жарко 1013.9 966.0
10 17.09 С 2 20 км ясно +27.8 +9.9 33 +28 +43 жарко 1013.8 966.0
11 17.09 С 2 20 км ясно +29.7 +6.3 23 +28 +43 жарко 1013.2 965.5
12 17.09 С 1
{4}
20 км ясно +30.8 +6.6 22 +29 +42 жарко 1012.5 964.9
13 17.09 С 2 20 км ясно +31.2 +7.5 23 +30 +38 жарко 1012.2 964.6
14 17.09 В 1 20 км ясно +30.9 +7.9 24 +30 +34 жарко 1012.2 964.5
15 17.09 С 1
{3}
20 км ясно +30.1 +8.4 26 +29 +31 жарко 1012.1 964.3
16 17.09 З 1 20 км ясно +27.8 +9.5 32 +28 +28 жарко 1012.5 964.4

 

Местоположение метеостанции Денизли (Турция): широта 37.78 долгота 29.08 высота над уровнем моря 425 м.

В архиве по умолчанию представлена погода в Денизли за последнюю неделю. Архивные данные за месяц целиком и за предыдущие месяцы, начиная с января 2011 года, Вы можете получить, выбрав интересующий диапазон дат из раскрывающегося списка и нажав кнопку "Ввод!".


*Определитесь, кто Вы:
робот инопланетянин человек

Внимание! Время в таблицах - всемирное. Для получения местного времени необходимо прибавить поправку, которая равна 2 ч.

Смотрите также архив погоды в соседних городах и на ближайших метеорологических станциях:

Погода в Мугле (Турция) (88 км)
Погода в Ушак Мейдан (Турция) (105 км)
Погода в Айдыне (Турция) (108 км)
Погода в Бурдуре (Турция) (111 км)
Погода в Сулейман Демирель (Турция) (114 км)
Погода в Даламане (Турция) (123 км)
Погода в Мармарисе (Турция) (126 км)
Погода в Фетхие (Турция) (129 км)
Погода в Ыспарте (Турция) (129 км)
Погода в Аэропорту Милас-Бодрум (Турция) (139 км)

Пояснения к столбцам:

Ветер - указаны скорость ветра в м/с - средняя за 10 мин, порывы в срок и между сроками (в фигурных скобках) и направление, откуда дует ветер: С - северный, СВ - северо-восточный, В - восточный, ЮВ - юго-восточный, Ю - южный, ЮЗ - юго-западный, З - западный, СЗ - северо-западный.
Видимость - горизонтальная дальность видимости в метрах или километрах. При видимости от 1 до 10 км при отсутствии осадков обычно наблюдается дымка, при ухудшении видимости до 1 км и менее - туман. В сухую погоду видимость может ухудшаться дымом, пылью или мглою.
Явления - указаны атмосферные явления, наблюдавшиеся в срок или в последний час перед сроком; фигурными скобками обозначены явления, наблюдавшиеся между сроками (за 1-3 часа до срока); квадратными скобками обозначены град или гололедные отложения с указанием их диаметра в мм.
Облачность - указаны через наклонную черту общая и нижняя облачность в баллах и высота нижней границы облаков в метрах; квадратными скобками обозначены формы облаков: Ci - перистые, Cs - перисто-слоистые, Cc - перисто-кучевые, Ac - высококучевые, As - высокослоистые, Sc - слоисто-кучевые, Ns - слоисто-дождевые, Cu - кучевые, Cb - кучево-дождевые. Подробнее классификацию облаков см. в Атласе облаков (PDF).
T - Температура воздуха - температура, измеренная на высоте 2 м над землей.
Td - Температура точки росы - температура, при понижении до которой содержащийся в воздухе водяной пар достигнет насыщения.
f - Относительная влажность воздуха - влажноcть воздуха, измеренная на высоте 2 м над землей.
Te - Эффективная температура - температура, которую ощущает одетый по сезону человек в тени. Характеристика душности погоды. При расчете учитывается влияние влажности воздуха и скорости ветра на теплоощущения человека.
Tes - Эффективная температура на солнце - температура, которую ощущает человек, с поправкой на солнечный нагрев. Характеристика знойности погоды. Зависит от высоты солнца над горизонтом, облачности и скорости ветра. Ночью, в пасмурную погоду, а также при ветре 12 м/с и более поправка равна нулю.
P - Атмосферное давление - приведенное к уровню моря атмосферное давление.
Po - Атмосферное давление - измеренное на уровне метеостанции атмосферное давление.
Tmin - Минимальная температура - минимум температуры воздуха на высоте 2 м над землей.
Tmax - Максимальная температура - максимум температуры воздуха на высоте 2 м над землей.
R - Количество осадков - Количество выпавших осадков за период времени, мм. При наведении курсора мыши на число - период времени, за который выпало указанное количество осадков.
R24 - Количество осадков - Количество выпавших осадков за 24 часа, мм.
S - Снежный покров - Высота снежного покрова, см. При наведении курсора мыши на число - состояние снежного покрова и степень покрытия местности в баллах.